TimeEST,TemperatureF,Dew PointF,Humidity,Sea Level PressureIn,VisibilityMPH,Wind Direction,Wind SpeedMPH,Gust SpeedMPH,PrecipitationIn,Events,Conditions,WindDirDegrees,DateUTC
12:15 AM,14.4,-2.9,46,30.06,10.0,WNW,8.1,-,N/A,,Unknown,290,2013-01-18 05:15:00
12:35 AM,14.4,-2.7,47,30.08,10.0,WNW,6.9,-,N/A,,Unknown,290,2013-01-18 05:35:00
12:55 AM,14.2,-4.0,44,30.10,10.0,WNW,6.9,-,N/A,,Unknown,300,2013-01-18 05:55:00
1:15 AM,13.8,-4.5,44,30.09,10.0,NW,6.9,-,N/A,,Unknown,320,2013-01-18 06:15:00
1:35 AM,13.5,-5.6,43,30.10,10.0,NW,8.1,-,N/A,,Unknown,310,2013-01-18 06:35:00
1:55 AM,13.1,-10.5,34,30.10,10.0,WNW,9.2,18.4,N/A,,Unknown,300,2013-01-18 06:55:00
2:15 AM,12.6,-9.4,37,30.12,10.0,WNW,10.4,-,N/A,,Unknown,300,2013-01-18 07:15:00
2:35 AM,12.0,-8.9,39,30.14,10.0,WNW,8.1,-,N/A,,Unknown,290,2013-01-18 07:35:00
2:55 AM,11.1,-8.3,41,30.13,10.0,West,6.9,-,N/A,,Unknown,280,2013-01-18 07:55:00
3:15 AM,10.6,-7.8,44,30.15,10.0,West,9.2,-,N/A,,Unknown,280,2013-01-18 08:15:00
3:35 AM,10.0,-6.7,47,30.13,10.0,West,6.9,-,N/A,,Unknown,280,2013-01-18 08:35:00
3:55 AM,9.5,-6.9,48,30.15,10.0,West,8.1,-,N/A,,Unknown,280,2013-01-18 08:55:00
4:15 AM,8.6,-8.5,46,30.14,10.0,West,5.8,-,N/A,,Unknown,270,2013-01-18 09:15:00
4:35 AM,8.1,-9.8,44,30.16,10.0,WNW,6.9,-,N/A,,Unknown,290,2013-01-18 09:35:00
4:55 AM,6.8,-11.4,43,30.16,10.0,WNW,4.6,-,N/A,,Unknown,290,2013-01-18 09:55:00
5:15 AM,6.8,-13.9,38,30.17,10.0,WNW,6.9,-,N/A,,Unknown,290,2013-01-18 10:15:00
5:35 AM,6.3,-13.7,40,30.18,10.0,WNW,8.1,-,N/A,,Unknown,300,2013-01-18 10:35:00
5:55 AM,5.5,-13.4,42,30.19,10.0,WNW,6.9,-,N/A,,Unknown,300,2013-01-18 10:55:00
6:15 AM,5.4,-14.8,39,30.19,10.0,WNW,8.1,-,N/A,,Unknown,300,2013-01-18 11:15:00
6:35 AM,5.0,-15.3,39,30.20,10.0,WNW,4.6,-,N/A,,Unknown,290,2013-01-18 11:35:00
6:55 AM,5.0,-16.1,37,30.22,10.0,WNW,5.8,-,N/A,,Unknown,290,2013-01-18 11:55:00
7:15 AM,4.6,-16.6,37,30.24,10.0,WNW,5.8,-,N/A,,Unknown,300,2013-01-18 12:15:00
7:35 AM,4.3,-16.2,38,30.25,10.0,WNW,4.6,-,N/A,,Unknown,290,2013-01-18 12:35:00
7:55 AM,4.5,-16.2,38,30.26,10.0,WNW,6.9,-,N/A,,Unknown,300,2013-01-18 12:55:00
8:15 AM,4.6,-15.7,39,30.27,10.0,WNW,4.6,-,N/A,,Unknown,290,2013-01-18 13:15:00
8:35 AM,5.0,-15.9,38,30.28,10.0,West,8.1,-,N/A,,Unknown,280,2013-01-18 13:35:00
9:15 AM,6.4,-16.6,34,30.29,10.0,West,11.5,-,N/A,,Unknown,270,2013-01-18 14:15:00
9:35 AM,7.2,-15.9,34,30.30,10.0,West,6.9,-,N/A,,Unknown,270,2013-01-18 14:35:00
9:55 AM,8.6,-16.1,32,30.30,10.0,West,8.1,-,N/A,,Unknown,270,2013-01-18 14:55:00
10:15 AM,9.5,-14.8,33,30.31,10.0,West,6.9,-,N/A,,Unknown,280,2013-01-18 15:15:00
10:35 AM,10.4,-15.5,30,30.31,10.0,WNW,10.4,17.3,N/A,,Unknown,290,2013-01-18 15:35:00
10:55 AM,11.1,-13.9,32,30.31,10.0,West,12.7,20.7,N/A,,Unknown,280,2013-01-18 15:55:00
11:15 AM,11.3,-12.1,34,30.30,10.0,WNW,8.1,21.9,N/A,,Unknown,300,2013-01-18 16:15:00
11:35 AM,12.0,-10.8,35,30.29,10.0,WNW,9.2,-,N/A,,Unknown,290,2013-01-18 16:35:00
11:55 AM,12.6,-10.5,35,30.28,10.0,WNW,15.0,23.0,N/A,,Unknown,300,2013-01-18 16:55:00
12:15 PM,13.6,-9.2,36,30.28,10.0,West,12.7,21.9,N/A,,Unknown,280,2013-01-18 17:15:00
12:55 PM,15.6,-8.1,34,30.27,10.0,WNW,10.4,19.6,N/A,,Unknown,290,2013-01-18 17:55:00
1:15 PM,16.7,-8.5,32,30.27,10.0,NW,12.7,17.3,N/A,,Unknown,310,2013-01-18 18:15:00
1:35 PM,17.2,-8.3,32,30.27,10.0,NW,13.8,18.4,N/A,,Unknown,310,2013-01-18 18:35:00
1:55 PM,17.6,-8.3,31,30.27,10.0,WNW,11.5,18.4,N/A,,Unknown,290,2013-01-18 18:55:00
2:15 PM,18.1,-9.0,30,30.28,10.0,WNW,12.7,16.1,N/A,,Unknown,300,2013-01-18 19:15:00
2:35 PM,18.7,-9.4,28,30.29,10.0,WNW,9.2,17.3,N/A,,Unknown,300,2013-01-18 19:35:00
3:15 PM,19.0,-9.6,28,30.30,10.0,West,11.5,18.4,N/A,,Unknown,280,2013-01-18 20:15:00
3:35 PM,19.0,-9.0,29,30.29,10.0,West,5.8,17.3,N/A,,Unknown,270,2013-01-18 20:35:00
3:55 PM,18.0,-9.8,29,30.30,10.0,West,6.9,-,N/A,,Unknown,280,2013-01-18 20:55:00
4:15 PM,17.6,-9.6,30,30.30,10.0,WNW,9.2,-,N/A,,Unknown,290,2013-01-18 21:15:00
4:35 PM,17.2,-9.4,30,30.31,10.0,WSW,4.6,-,N/A,,Unknown,250,2013-01-18 21:35:00
4:55 PM,16.7,-8.9,32,30.31,10.0,WSW,3.5,-,N/A,,Unknown,240,2013-01-18 21:55:00
5:15 PM,15.6,-8.0,35,30.32,10.0,Calm,Calm,-,N/A,,Unknown,0,2013-01-18 22:15:00
5:35 PM,11.3,-2.9,53,30.33,10.0,Calm,Calm,-,N/A,,Unknown,0,2013-01-18 22:35:00
5:55 PM,11.5,-4.4,49,30.34,10.0,Calm,Calm,-,N/A,,Unknown,0,2013-01-18 22:55:00
6:15 PM,9.7,-0.4,64,30.33,10.0,SSE,3.5,-,N/A,,Unknown,150,2013-01-18 23:15:00
6:35 PM,8.2,-0.9,66,30.34,10.0,Calm,Calm,-,N/A,,Unknown,0,2013-01-18 23:35:00
6:55 PM,7.2,-1.3,68,30.34,10.0,Calm,Calm,-,N/A,,Unknown,0,2013-01-18 23:55:00
7:15 PM,5.9,0.3,78,30.34,10.0,Calm,Calm,-,N/A,,Unknown,0,2013-01-19 00:15:00
7:55 PM,3.9,-0.8,81,30.35,10.0,Calm,Calm,-,N/A,,Unknown,0,2013-01-19 00:55:00
8:15 PM,3.2,-1.7,80,30.36,10.0,Calm,Calm,-,N/A,,Unknown,0,2013-01-19 01:15:00
8:35 PM,3.0,-0.9,84,30.35,10.0,Calm,Calm,-,N/A,,Unknown,0,2013-01-19 01:35:00
8:55 PM,3.4,0.3,87,30.35,10.0,Calm,Calm,-,N/A,,Unknown,0,2013-01-19 01:55:00
9:15 PM,1.9,-1.3,86,30.36,10.0,Calm,Calm,-,N/A,,Unknown,0,2013-01-19 02:15:00
9:55 PM,1.2,-2.0,86,30.34,10.0,Calm,Calm,-,N/A,,Unknown,0,2013-01-19 02:55:00
10:15 PM,1.0,-2.0,87,30.34,10.0,Calm,Calm,-,N/A,,Unknown,0,2013-01-19 03:15:00
10:35 PM,1.0,-1.7,88,30.34,10.0,Calm,Calm,-,N/A,,Unknown,0,2013-01-19 03:35:00
11:15 PM,2.8,-0.2,87,30.32,10.0,Calm,Calm,-,N/A,,Unknown,0,2013-01-19 04:15:00
11:35 PM,4.1,1.4,89,30.31,10.0,Calm,Calm,-,N/A,,Unknown,0,2013-01-19 04:35:00
11:55 PM,4.8,1.0,84,30.30,10.0,Calm,Calm,-,N/A,,Unknown,0,2013-01-19 04:55:00